Location: *
(58.4167°N, 22.5000°E)
Time: 12:12:33
(UTC+00:00)

Cosmos 1437 Rocket - Pass Details

Date: 22 September 2019
Orbit: 506 x 563 km, 81.2° (Epoch: 20 October)

Event Time Altitude Azimuth Distance (km) Brightness Sun altitude
Rises 18:38:53 0° 340° (NNW) 2,648 7.1 -16.9°
Reaches altitude 10° 18:41:08 10° 332° (NNW) 1,749 6.3 -17.1°
Maximum altitude 18:44:41 37° 264° (W) 806 4.1 -17.5°
Drops below altitude 10° 18:48:11 10° 196° (SSW) 1,724 5.2 -17.9°
Enters shadow 18:48:30 - 194° (SSW) 1,844 5.3 -17.9°
